Tracking 17267 objects as of 31-August-2015
HD Live streaming from Space Station

GLOBALSTAR M059

Track GLOBALSTAR M059 now!
10-day predictions
GLOBALSTAR M059 is classified as:


NORAD ID: 25944
Int'l Code: 1999-058B
Perigee: 1,420.0 km
Apogee: 1,421.5 km
Inclination: 52.0 °
Period: 114.1 minutes
Semi major axis: 7791 km
RCS: 2.6566 m2 (large)
Launch date: October 18, 1999
Source: Globalstar (GLOB)
Your satellite tracking list
Your tracking list is empty





NASA's NSSDC Master Catalog

Two Line Element Set (TLE):
1 25944U 99058B   15242.42114169 -.00000105  00000-0 -65260-5 0  9999
2 25944 052.0021 235.2248 0000918 047.7658 117.0298 12.62265899731927

Source of the keplerian elements: AFSPC

N2YO: 242